Location: Babice
(50.3480°N, 22.9363°E)
Time: 12:40:23
(UTC+00:00)

Aureole 2 - Pass Details

Date: 14 July 2020
Orbit: 366 x 900 km, 73.9° (Epoch: 07 August)

Event Time Altitude Azimuth Distance (km) Brightness Sun altitude
Exits shadow 01:46:39 - 200° (SSW) 1,617 6.6 -6.4°
Reaches altitude 10° 01:47:12 10° 200° (SSW) 1,376 6.3 -6.4°
Maximum altitude 01:50:09 81° 114° (ESE) 378 4.1 -6.1°
Drops below altitude 10° 01:53:07 10° 26° (NNE) 1,385 8.3 -5.7°
Sets 01:55:09 0° 25° (NNE) 2,268 9.5 -5.5°
